Showing default

OPS 1593 (TRANSIT 11), 1952

Orbit data source: Space-Track

OPS 1593 (TRANSIT 11), 1952 is a payload satellite owned by USN BuWeps (US) in LEO that was launched on Fri, 28 Jan 1966 UTC via an SCOUT A launch vehicle from the Air Force Western Test Range (AFWTR). Payload-class satellites include a variety of spacecraft equipped with specific instruments for various scientific and technological missions. These include communications satellites like Starlink; space stations such as the ISS; scientific satellites like the Hubble; Earth observation satellites from companies like Planet Labs, Umbra, and HawkEye 360; GPS; miniature CubeSats for education and research; and military/defense satellites.

Loading next visibility...
Identifier
1952, 1966-005A
Orbit
LEO
Country
Flag of USUS
Related business
Manufacturer
NAFI
Mission
Spacecraft
Bus & Motor
TRANSIT 5, Unknown motor
Mass
~50 kg wet, ~50 kg dry
Launch date (UTC)
1966-01-28 (61 years ago)
Launch vehicle
SCOUT A
Launch site
Air Force Western Test Range (AFWTR)
Object type
Payload
Rocket body
Debris
Shape & HBR
OCT CYL + 4 PAN + ANT, 15.0 m
Radar Cross Section
Medium (>0.1 m² and <1 m²)

Expand to show TLE details & history
Last TLE update: 17 hours ago

TLE from 17 hours ago
0 OPS 1593 (TRANSIT 11)
1 01952U 66005A   26235.34184992  .00000173  00000-0  16253-3 0  9993
2 01952  90.1516 352.8369 0217413 178.1882 182.0119 13.68156224 15309
Epoch: 2026-08-23T08:12Z
TLE epoch observation values (Epoch: 2026-08-23T08:12:15.833Z)
Latitude
0.00006°
Longitude
-101.86836°
Altitude
1,169.663 km
Speed
7.189 km/s
True Right ascension
23h 31m 20s
True Declination
0° 00' 00"
Sunlit
Object was in full shadow at epoch
Visualization orbit readout
Latitude
Unknown
Longitude
Unknown
Altitude
Unknown
Speed
Unknown
Apparent Right ascension
Unknown
Apparent Declination
Unknown
Sunlit
N/A
Visualization observer readout
Local Sidereal Time
16:08:50
Azimuth
Unknown
Elevation
Unknown
Doppler factor
Unknown
Orbital elements
Apogee altitude
1,163.699 km
Perigee altitude
842.739 km
Semi-major axis
7,381.356 km
Eccentricity
0.02174
Inclination
90.1516°
RAAN
352.8369°
Arg. of periapsis
178.1882°
True anomaly
181.92675°
Mean anomaly
182.0119°
Eccentric anomaly
181.9691°
Mean motion
3.42246 °/min
Orbital period
105.19 mins
BSTAR
0.00016253
Loading maneuver chart data...
Computing Atmospheric mass density...
Loading historical data...
Loading historical data...
Loading historical data...
Loading historical data...
Loading historical data...
Loading historical data...
Loading historical data...

Documentation

Showing up to 5 results
|